Location: Cardiff
(53.7833°N, 113.6000°W)
Time: 06:12:37
(UTC+00:00)

Envisat - Visible Passes

Search period start: 05 June 2023 00:00
Search period end: 15 June 2023 00:00
Orbit: 763 x 765 km, 98.2° (Epoch: 04 June)

Date Brightness Start Highest point End Pass type
(mag) Time Alt. Az. Time Alt. Az. Time Alt. Az.
07 Jun 5.6 10:00:10 10° NE 10:02:44 14° E 10:05:18 10° ESE visible
10 Jun 5.8 09:48:47 10° ENE 09:50:05 11° E 09:51:23 10° E visible
12 Jun 5.5 10:11:51 10° NE 10:15:13 17° E 10:18:32 10° SE visible
